{"data":{"norad_id":43764,"intl_designator":"2018-099G","name":"POLAR SCOUT KODIAK","alt_names":[],"object_type":"PAYLOAD","status":"ACTIVE","operator":null,"country":"US","launch_date":"2018-12-03","launch_site_code":"AFWTR","launch_vehicle":null,"mission":null,"orbit_class":"UNKNOWN","rcs_meters":null,"size_class":null,"mass_kg":null,"dimensions":null,"purposes":[],"wikipedia_slug":null,"has_3d_model":false,"image_url":null,"decayed_at":null,"tle_current":{"epoch":"2026-05-24T23:29:00.151008Z","epoch_age_seconds":80090,"freshness":"FRESH","line1":"1 43764U 18099G   26144.97847397  .00115601  00000+0  92042-3 0  9995","line2":"2 43764  97.4173 227.1737 0004207 261.7362  98.3424 15.70829188411281","mean_motion":15.70829188,"eccentricity":0.0004207,"inclination_deg":97.4173,"raan_deg":227.1737,"arg_perigee_deg":261.7362,"mean_anomaly_deg":98.3424,"bstar":0.00092042,"rev_number":41128,"period_min":91.671329448202,"perigee_km":353.69269175617,"apogee_km":359.35923717447,"semimajor_km":6734.6629644653,"source":"CELESTRAK","updated_at":"2026-05-25T13:37:55.893012Z"}}}